Time,TemperatureF,DewpointF,PressureIn,WindDirection,WindDirectionDegrees,WindSpeedMPH,WindSpeedGustMPH,Humidity,HourlyPrecipIn,Conditions,Clouds,dailyrainin,SoftwareType,DateUTC
2013-03-15 00:01:00,71.0,33.0,30.09,WNW,297,13.0,20.0,25,0.00,,,0.00,,2013-03-15 07:01:00,
2013-03-15 00:11:00,71.0,33.0,30.09,WNW,297,13.0,20.0,25,0.00,,,0.00,,2013-03-15 07:11:00,
2013-03-15 00:21:00,72.0,33.0,30.09,WNW,296,13.0,21.0,24,0.00,,,0.00,,2013-03-15 07:21:00,
2013-03-15 00:31:00,72.0,33.0,30.09,WNW,294,10.0,21.0,24,0.00,,,0.00,,2013-03-15 07:31:00,
2013-03-15 00:42:00,72.0,33.0,30.09,WNW,294,10.0,21.0,24,0.00,,,0.00,,2013-03-15 07:42:00,
2013-03-15 00:52:00,71.0,31.0,30.08,WNW,295,10.0,16.0,23,0.00,,,0.00,,2013-03-15 07:52:00,
2013-03-15 01:01:00,71.0,31.0,30.08,WNW,295,10.0,16.0,23,0.00,,,0.00,,2013-03-15 08:01:00,
2013-03-15 01:11:00,71.0,31.0,30.08,WNW,295,10.0,16.0,23,0.00,,,0.00,,2013-03-15 08:11:00,
2013-03-15 01:22:00,71.0,33.0,30.08,WNW,294,12.0,18.0,25,0.00,,,0.00,,2013-03-15 08:22:00,
2013-03-15 01:31:00,70.0,33.0,30.08,WNW,296,11.0,18.0,25,0.00,,,0.00,,2013-03-15 08:31:00,
2013-03-15 01:41:00,70.0,33.0,30.08,WNW,296,11.0,18.0,25,0.00,,,0.00,,2013-03-15 08:41:00,
2013-03-15 01:52:00,70.0,33.0,30.07,WNW,295,12.0,19.0,25,0.00,,,0.00,,2013-03-15 08:52:00,
2013-03-15 02:01:00,70.0,30.0,30.07,WNW,297,9.0,17.0,23,0.00,,,0.00,,2013-03-15 09:01:00,
2013-03-15 02:11:00,70.0,30.0,30.07,WNW,297,9.0,17.0,23,0.00,,,0.00,,2013-03-15 09:11:00,
2013-03-15 02:21:00,68.0,34.0,30.07,North,0,0.0,0.0,28,0.00,,,0.00,,2013-03-15 09:21:00,
2013-03-15 02:32:00,67.0,32.0,30.07,WNW,292,5.0,10.0,27,0.00,,,0.00,,2013-03-15 09:32:00,
2013-03-15 02:42:00,67.0,32.0,30.07,WNW,292,5.0,10.0,27,0.00,,,0.00,,2013-03-15 09:42:00,
2013-03-15 02:53:00,68.0,31.0,30.06,WNW,294,9.0,15.0,25,0.00,,,0.00,,2013-03-15 09:53:00,
2013-03-15 03:02:00,68.0,31.0,30.06,WNW,298,9.0,14.0,25,0.00,,,0.00,,2013-03-15 10:02:00,
2013-03-15 03:12:00,68.0,31.0,30.06,WNW,298,9.0,14.0,25,0.00,,,0.00,,2013-03-15 10:12:00,
2013-03-15 03:22:00,67.0,32.0,30.05,WNW,283,4.0,12.0,27,0.00,,,0.00,,2013-03-15 10:22:00,
2013-03-15 03:32:00,67.0,30.0,30.05,West,275,1.0,7.0,25,0.00,,,0.00,,2013-03-15 10:32:00,
2013-03-15 03:52:00,66.0,34.0,30.05,West,277,3.0,7.0,30,0.00,,,0.00,,2013-03-15 10:52:00,
2013-03-15 04:02:00,66.0,34.0,30.05,WNW,289,8.0,14.0,31,0.00,,,0.00,,2013-03-15 11:02:00,
2013-03-15 04:12:00,66.0,34.0,30.05,WNW,289,8.0,14.0,31,0.00,,,0.00,,2013-03-15 11:12:00,
2013-03-15 04:22:00,67.0,39.0,30.06,WNW,292,11.0,16.0,36,0.00,,,0.00,,2013-03-15 11:22:00,
2013-03-15 04:32:00,66.0,41.0,30.06,WNW,296,11.0,16.0,40,0.00,,,0.00,,2013-03-15 11:32:00,
2013-03-15 04:41:00,66.0,41.0,30.06,WNW,296,11.0,16.0,40,0.00,,,0.00,,2013-03-15 11:41:00,
2013-03-15 04:52:00,65.0,40.0,30.06,West,274,6.0,16.0,40,0.00,,,0.00,,2013-03-15 11:52:00,
2013-03-15 05:01:00,65.0,40.0,30.06,WNW,287,4.0,11.0,40,0.00,,,0.00,,2013-03-15 12:01:00,
2013-03-15 05:11:00,66.0,39.0,30.06,WNW,282,3.0,8.0,37,0.00,,,0.00,,2013-03-15 12:11:00,
2013-03-15 05:21:00,66.0,39.0,30.06,WNW,282,3.0,8.0,37,0.00,,,0.00,,2013-03-15 12:21:00,
2013-03-15 05:31:00,66.0,40.0,30.06,WNW,291,5.0,11.0,39,0.00,,,0.00,,2013-03-15 12:31:00,
2013-03-15 05:52:00,65.0,41.0,30.06,WNW,289,6.0,11.0,42,0.00,,,0.00,,2013-03-15 12:52:00,
2013-03-15 06:01:00,65.0,39.0,30.06,North,0,0.0,9.0,39,0.00,,,0.00,,2013-03-15 13:01:00,
2013-03-15 06:11:00,65.0,39.0,30.06,North,0,0.0,9.0,39,0.00,,,0.00,,2013-03-15 13:11:00,
2013-03-15 06:22:00,66.0,40.0,30.06,WNW,290,6.0,13.0,38,0.00,,,0.00,,2013-03-15 13:22:00,
2013-03-15 06:31:00,65.0,40.0,30.06,WNW,285,6.0,13.0,40,0.00,,,0.00,,2013-03-15 13:31:00,
2013-03-15 06:41:00,65.0,40.0,30.06,WNW,285,6.0,13.0,40,0.00,,,0.00,,2013-03-15 13:41:00,
2013-03-15 06:52:00,64.0,40.0,30.06,WNW,299,1.0,5.0,42,0.00,,,0.00,,2013-03-15 13:52:00,
2013-03-15 07:01:00,65.0,40.0,30.06,NW,324,4.0,11.0,40,0.00,,,0.00,,2013-03-15 14:01:00,
2013-03-15 07:22:00,65.0,39.0,30.07,North,0,0.0,3.0,39,0.00,,,0.00,,2013-03-15 14:22:00,
2013-03-15 07:32:00,65.0,40.0,30.06,North,0,0.0,2.0,40,0.00,,,0.00,,2013-03-15 14:32:00,
2013-03-15 07:52:00,63.0,39.0,30.07,North,0,0.0,4.0,41,0.00,,,0.00,,2013-03-15 14:52:00,
2013-03-15 08:01:00,63.0,41.0,30.07,North,0,0.0,2.0,44,0.00,,,0.00,,2013-03-15 15:01:00,
2013-03-15 08:11:00,63.0,41.0,30.07,North,0,0.0,2.0,44,0.00,,,0.00,,2013-03-15 15:11:00,
2013-03-15 08:21:00,63.0,41.0,30.07,North,0,0.0,3.0,44,0.00,,,0.00,,2013-03-15 15:21:00,
2013-03-15 08:32:00,64.0,40.0,30.07,North,0,0.0,3.0,41,0.00,,,0.00,,2013-03-15 15:32:00,
2013-03-15 08:42:00,66.0,39.0,30.08,North,0,0.0,3.0,37,0.00,,,0.00,,2013-03-15 15:42:00,
2013-03-15 08:52:00,66.0,39.0,30.08,North,0,0.0,3.0,37,0.00,,,0.00,,2013-03-15 15:52:00,
2013-03-15 09:02:00,66.0,39.0,30.08,North,0,0.0,2.0,37,0.00,,,0.00,,2013-03-15 16:02:00,
2013-03-15 09:12:00,69.0,40.0,30.09,NNW,328,1.0,4.0,35,0.00,,,0.00,,2013-03-15 16:12:00,
2013-03-15 09:22:00,69.0,40.0,30.09,NNW,328,1.0,4.0,35,0.00,,,0.00,,2013-03-15 16:22:00,
2013-03-15 09:32:00,69.0,39.0,30.09,ENE,68,1.0,4.0,34,0.00,,,0.00,,2013-03-15 16:32:00,
2013-03-15 09:52:00,72.0,41.0,30.09,North,0,0.0,4.0,32,0.00,,,0.00,,2013-03-15 16:52:00,
2013-03-15 10:01:00,73.0,43.0,30.09,SW,218,2.0,5.0,34,0.00,,,0.00,,2013-03-15 17:01:00,
2013-03-15 10:11:00,73.0,43.0,30.09,SW,218,2.0,5.0,34,0.00,,,0.00,,2013-03-15 17:11:00,
2013-03-15 10:22:00,74.0,41.0,30.08,North,0,0.0,10.0,31,0.00,,,0.00,,2013-03-15 17:22:00,
2013-03-15 10:32:00,75.0,45.0,30.08,NW,306,10.0,19.0,34,0.00,,,0.00,,2013-03-15 17:32:00,
2013-03-15 10:41:00,75.0,45.0,30.08,NW,306,10.0,19.0,34,0.00,,,0.00,,2013-03-15 17:41:00,
2013-03-15 10:52:00,73.0,47.0,30.07,WNW,302,12.0,20.0,39,0.00,,,0.00,,2013-03-15 17:52:00,
2013-03-15 11:02:00,72.0,46.0,30.07,WNW,295,10.0,22.0,39,0.00,,,0.00,,2013-03-15 18:02:00,
2013-03-15 11:11:00,72.0,46.0,30.07,WNW,295,10.0,22.0,39,0.00,,,0.00,,2013-03-15 18:11:00,
2013-03-15 11:21:00,76.0,41.0,30.07,WNW,295,7.0,17.0,29,0.00,,,0.00,,2013-03-15 18:21:00,
2013-03-15 11:31:00,76.0,41.0,30.06,WNW,303,4.0,17.0,29,0.00,,,0.00,,2013-03-15 18:31:00,
2013-03-15 11:41:00,76.0,41.0,30.06,WNW,303,4.0,17.0,29,0.00,,,0.00,,2013-03-15 18:41:00,
2013-03-15 11:52:00,79.0,38.0,30.06,WNW,293,7.0,14.0,23,0.00,,,0.00,,2013-03-15 18:52:00,
2013-03-15 12:01:00,80.0,34.0,30.05,WNW,293,8.0,13.0,19,0.00,,,0.00,,2013-03-15 19:01:00,
2013-03-15 12:12:00,80.0,34.0,30.05,WNW,293,8.0,13.0,19,0.00,,,0.00,,2013-03-15 19:12:00,
2013-03-15 12:22:00,81.0,33.0,30.04,WSW,254,8.0,14.0,18,0.00,,,0.00,,2013-03-15 19:22:00,
2013-03-15 12:31:00,80.0,28.0,30.04,West,268,7.0,16.0,15,0.00,,,0.00,,2013-03-15 19:31:00,
2013-03-15 12:52:00,80.0,33.0,30.03,SW,224,10.0,14.0,18,0.00,,,0.00,,2013-03-15 19:52:00,
2013-03-15 13:02:00,80.0,35.0,30.02,WSW,252,2.0,12.0,20,0.00,,,0.00,,2013-03-15 20:02:00,
2013-03-15 13:11:00,80.0,35.0,30.02,WSW,252,2.0,12.0,20,0.00,,,0.00,,2013-03-15 20:11:00,
2013-03-15 13:22:00,81.0,32.0,30.01,SSW,203,3.0,12.0,17,0.00,,,0.00,,2013-03-15 20:22:00,
2013-03-15 13:31:00,81.0,33.0,30.01,WNW,289,3.0,9.0,18,0.00,,,0.00,,2013-03-15 20:31:00,
2013-03-15 13:52:00,82.0,28.0,29.99,WNW,294,11.0,28.0,14,0.00,,,0.00,,2013-03-15 20:52:00,
2013-03-15 14:01:00,83.0,32.0,29.99,WNW,294,7.0,19.0,16,0.00,,,0.00,,2013-03-15 21:01:00,
2013-03-15 14:11:00,83.0,32.0,29.99,WNW,294,7.0,19.0,16,0.00,,,0.00,,2013-03-15 21:11:00,
2013-03-15 14:21:00,82.0,37.0,29.98,WNW,300,12.0,20.0,20,0.00,,,0.00,,2013-03-15 21:21:00,
2013-03-15 14:32:00,82.0,39.0,29.98,WNW,293,12.0,23.0,22,0.00,,,0.00,,2013-03-15 21:32:00,
2013-03-15 14:42:00,82.0,39.0,29.98,WNW,293,12.0,23.0,22,0.00,,,0.00,,2013-03-15 21:42:00,
2013-03-15 14:52:00,80.0,41.0,29.97,WNW,296,19.0,28.0,25,0.00,,,0.00,,2013-03-15 21:52:00,
2013-03-15 15:02:00,79.0,45.0,29.96,WNW,301,19.0,29.0,30,0.00,,,0.00,,2013-03-15 22:02:00,
2013-03-15 15:22:00,77.0,46.0,29.96,WNW,303,19.0,33.0,33,0.00,,,0.00,,2013-03-15 22:22:00,
2013-03-15 15:32:00,77.0,46.0,29.96,WNW,302,16.0,34.0,34,0.00,,,0.00,,2013-03-15 22:32:00,
2013-03-15 15:52:00,77.0,42.0,29.95,WNW,302,21.0,33.0,29,0.00,,,0.00,,2013-03-15 22:52:00,
2013-03-15 16:02:00,76.0,44.0,29.95,NW,305,19.0,34.0,32,0.00,,,0.00,,2013-03-15 23:02:00,
2013-03-15 16:11:00,76.0,44.0,29.95,NW,305,19.0,34.0,32,0.00,,,0.00,,2013-03-15 23:11:00,
2013-03-15 16:21:00,77.0,38.0,29.95,WNW,296,21.0,34.0,25,0.00,,,0.00,,2013-03-15 23:21:00,
2013-03-15 16:31:00,77.0,39.0,29.95,WNW,300,19.0,32.0,26,0.00,,,0.00,,2013-03-15 23:31:00,
2013-03-15 16:41:00,77.0,39.0,29.95,WNW,300,19.0,32.0,26,0.00,,,0.00,,2013-03-15 23:41:00,
2013-03-15 16:53:00,76.0,40.0,29.94,WNW,296,20.0,31.0,27,0.00,,,0.00,,2013-03-15 23:53:00,
2013-03-15 17:02:00,76.0,41.0,29.94,WNW,298,22.0,33.0,28,0.00,,,0.00,,2013-03-16 00:02:00,
2013-03-15 17:11:00,76.0,41.0,29.94,WNW,298,22.0,33.0,28,0.00,,,0.00,,2013-03-16 00:11:00,
2013-03-15 17:22:00,75.0,39.0,29.93,WNW,294,22.0,32.0,27,0.00,,,0.00,,2013-03-16 00:22:00,
2013-03-15 17:31:00,74.0,41.0,29.94,WNW,294,22.0,36.0,30,0.00,,,0.00,,2013-03-16 00:31:00,
2013-03-15 17:42:00,74.0,41.0,29.94,WNW,294,22.0,36.0,30,0.00,,,0.00,,2013-03-16 00:42:00,
2013-03-15 17:52:00,72.0,42.0,29.94,WNW,293,24.0,32.0,34,0.00,,,0.00,,2013-03-16 00:52:00,
2013-03-15 18:01:00,71.0,43.0,29.93,NW,304,24.0,36.0,37,0.00,,,0.00,,2013-03-16 01:01:00,
2013-03-15 18:11:00,71.0,43.0,29.93,NW,304,24.0,36.0,37,0.00,,,0.00,,2013-03-16 01:11:00,
2013-03-15 18:21:00,70.0,45.0,29.93,WNW,297,27.0,40.0,40,0.00,,,0.00,,2013-03-16 01:21:00,
2013-03-15 18:31:00,69.0,45.0,29.93,WNW,297,24.0,36.0,42,0.00,,,0.00,,2013-03-16 01:31:00,
2013-03-15 18:41:00,69.0,45.0,29.93,WNW,297,24.0,36.0,42,0.00,,,0.00,,2013-03-16 01:41:00,
2013-03-15 18:52:00,68.0,44.0,29.93,WNW,300,25.0,37.0,42,0.00,,,0.00,,2013-03-16 01:52:00,
2013-03-15 19:01:00,68.0,45.0,29.93,WNW,295,21.0,36.0,43,0.00,,,0.00,,2013-03-16 02:01:00,
2013-03-15 19:11:00,68.0,45.0,29.93,WNW,295,21.0,36.0,43,0.00,,,0.00,,2013-03-16 02:11:00,
2013-03-15 19:22:00,67.0,46.0,29.92,WNW,299,26.0,40.0,46,0.00,,,0.00,,2013-03-16 02:22:00,
2013-03-15 19:32:00,66.0,45.0,29.93,WNW,300,27.0,43.0,46,0.00,,,0.00,,2013-03-16 02:32:00,
2013-03-15 19:42:00,66.0,45.0,29.93,WNW,300,27.0,43.0,46,0.00,,,0.00,,2013-03-16 02:42:00,
2013-03-15 19:52:00,66.0,45.0,29.93,WNW,300,25.0,38.0,47,0.00,,,0.00,,2013-03-16 02:52:00,
2013-03-15 20:01:00,65.0,44.0,29.93,WNW,299,23.0,38.0,47,0.00,,,0.00,,2013-03-16 03:01:00,
2013-03-15 20:11:00,65.0,44.0,29.93,WNW,299,23.0,38.0,47,0.00,,,0.00,,2013-03-16 03:11:00,
2013-03-15 20:21:00,65.0,43.0,29.94,NW,307,21.0,39.0,45,0.00,,,0.00,,2013-03-16 03:21:00,
2013-03-15 20:32:00,65.0,44.0,29.95,NW,307,23.0,33.0,46,0.00,,,0.00,,2013-03-16 03:32:00,
2013-03-15 20:42:00,65.0,44.0,29.95,NW,307,23.0,33.0,46,0.00,,,0.00,,2013-03-16 03:42:00,
2013-03-15 20:53:00,64.0,42.0,29.95,NW,304,22.0,35.0,44,0.00,,,0.00,,2013-03-16 03:53:00,
2013-03-15 21:02:00,64.0,43.0,29.94,NW,307,21.0,35.0,46,0.00,,,0.00,,2013-03-16 04:02:00,
2013-03-15 21:12:00,64.0,43.0,29.94,NW,307,21.0,35.0,46,0.00,,,0.00,,2013-03-16 04:12:00,
2013-03-15 21:22:00,63.0,45.0,29.94,NW,322,18.0,36.0,52,0.00,,,0.00,,2013-03-16 04:22:00,
2013-03-15 21:32:00,63.0,45.0,29.95,NW,312,21.0,37.0,51,0.00,,,0.00,,2013-03-16 04:32:00,
2013-03-15 21:42:00,63.0,45.0,29.95,NW,312,21.0,37.0,51,0.00,,,0.00,,2013-03-16 04:42:00,
2013-03-15 21:52:00,63.0,44.0,29.96,NW,307,17.0,33.0,49,0.00,,,0.00,,2013-03-16 04:52:00,
2013-03-15 22:02:00,63.0,43.0,29.98,WNW,303,20.0,39.0,48,0.00,,,0.00,,2013-03-16 05:02:00,
2013-03-15 22:12:00,63.0,43.0,29.98,WNW,303,20.0,39.0,48,0.00,,,0.00,,2013-03-16 05:12:00,
2013-03-15 22:21:00,63.0,42.0,29.98,NW,318,15.0,33.0,46,0.00,,,0.00,,2013-03-16 05:21:00,
2013-03-15 22:31:00,63.0,42.0,29.98,NW,306,17.0,31.0,46,0.00,,,0.00,,2013-03-16 05:31:00,
2013-03-15 22:42:00,63.0,42.0,29.98,NW,306,17.0,31.0,46,0.00,,,0.00,,2013-03-16 05:42:00,
2013-03-15 22:52:00,63.0,42.0,30.00,NW,306,16.0,31.0,46,0.00,,,0.00,,2013-03-16 05:52:00,
2013-03-15 23:02:00,63.0,42.0,30.00,NW,308,19.0,27.0,46,0.00,,,0.00,,2013-03-16 06:02:00,
2013-03-15 23:11:00,63.0,42.0,30.00,NW,308,19.0,27.0,46,0.00,,,0.00,,2013-03-16 06:11:00,
2013-03-15 23:21:00,63.0,42.0,29.99,WNW,294,26.0,38.0,47,0.00,,,0.00,,2013-03-16 06:21:00,
2013-03-15 23:32:00,63.0,43.0,29.99,WNW,293,22.0,34.0,48,0.00,,,0.00,,2013-03-16 06:32:00,
2013-03-15 23:41:00,63.0,43.0,29.99,WNW,293,22.0,34.0,48,0.00,,,0.00,,2013-03-16 06:41:00,
2013-03-15 23:52:00,62.0,42.0,29.98,WNW,295,24.0,30.0,47,0.00,,,0.00,,2013-03-16 06:52:00,